Location: Arlington
(40.6323°N, 74.1651°W)
Time: 18:53:40
(UTC+00:00)

Envisat - Pass Details

Date: 22 November 2019
Orbit: 764 x 766 km, 98.1° (Epoch: 10 December)

Event Time Altitude Azimuth Distance (km) Brightness Sun altitude
Rises 22:04:17 0° 138° (SE) 3,220 6.0 -6.1°
Reaches altitude 10° 22:06:48 10° 128° (SE) 2,298 5.2 -6.5°
Maximum altitude 22:11:11 31° 68° (ENE) 1,335 3.7 -7.3°
Drops below altitude 10° 22:15:36 10° 8° (N) 2,310 5.2 -8.1°
Sets 22:18:07 0° 358° (N) 3,241 6.1 -8.5°
